Location: Chevoux
(46.3801°N, 4.9476°E)
Time: 17:41:11
(UTC+00:00)

Envisat - Pass Details

Date: 03 December 2021
Orbit: 764 x 766 km, 98.2° (Epoch: 16 January)

Event Time Altitude Azimuth Distance (km) Brightness Sun altitude
Rises 04:28:28 0° 16° (NNE) 3,244 6.4 -26.2°
Reaches altitude 10° 04:30:50 10° 20° (NNE) 2,313 5.6 -25.8°
Maximum altitude 04:35:52 60° 101° (E) 878 3.5 -25.0°
Drops below altitude 10° 04:40:52 10° 181° (S) 2,295 5.5 -24.1°
Sets 04:43:11 0° 185° (S) 3,216 6.3 -23.7°
